484  
ASUS46 KSTO 231015  
RWRCA  
 
NORTHERN AND CENTRAL CA REGIONAL WEATHER ROUNDUP  
NATIONAL WEATHER SERVICE SACRAMENTO CA  
300 AM PDT WED MAY 23 2018  
 
NOTE: FAIR INDICATES FEW OR NO CLOUDS BELOW 12,000 FEET WITH NO  
SIGNIFICANT WEATHER AND/OR S TO VISIBILITY
.  
 
CAZ001-003-231100-  
NORTHWEST AREA  
 
CITY SKY/WX TMP DP RH WIND PRES REMARKS
 
CRESCENT CITY CLOUDY 52 51 97 S6 29.89R  
UKIAH CLOUDY 54 49 83 S6 29.87R  

 
 
CAZ006-505>513-231100-  
BAY AREA  
 
CITY SKY/WX TMP DP RH WIND PRES REMARKS
 
SANTA ROSA CLOUDY 54 51 90 SE3 29.87S  
SAN RAFAEL N/A 54 MM MM MISG  
NAPA CLOUDY 56 51 84 W10 29.88F  
CONCORD CLOUDY 57 50 77 SW12 29.89S  
OAKLAND CITY N/A MM MM MM MISG  
OAKLAND CLOUDY 54 52 93 SW10 29.91S  
SAN FRAN CITY N/A 53 MM 97 MISG  
SAN FRAN ARPT CLOUDY 55 51 86 SW5 29.91S  
LIVERMORE CLOUDY 54 52 93 W9 29.89F  
HAYWARD CLOUDY 56 49 77 W7 29.91S  
REDWOOD CITY N/A 55 MM 82 MISG  
MOFFETT ARPT CLOUDY 56 49 77 W8 29.92S  
SAN JOSE ARPT CLOUDY 58 49 72 NW8 29.91S  

 
CAZ034-037-514>518-231100-  
CENTRAL COAST  
 
CITY SKY/WX TMP DP RH WIND PRES REMARKS
 
WATSONVILLE CLOUDY 52 52 100 CALM 29.92F  
SALINAS CLOUDY 53 51 93 CALM 29.92F  
MONTEREY CLOUDY 53 51 93 CALM 29.93S FOG  
SAN LUIS OBISP CLOUDY 54 49 83 NW5 29.93F  
SANTA MARIA CLOUDY 55 49 80 S5 29.93F  

 
CAZ015-016-231100-  
NORTHERN SACRAMENTO VALLEY  
 
CITY SKY/WX TMP DP RH WIND PRES REMARKS
 
REDDING CLOUDY 68 55 63 S6 29.81R  
RED BLUFF MOCLDY 64 55 72 S6 29.82S  
OROVILLE MOCLDY 60 53 77 SE12 29.84S  

 
CAZ016>018-231100-  
SOUTHERN SACRAMENTO VALLEY  
 
CITY SKY/WX TMP DP RH WIND PRES REMARKS
 
AUBURN PTCLDY 54 50 87 SE6 29.86F  
BEALE AFB CLOUDY 58 51 80 S10 29.83R  
LINCOLN FAIR 55 50 82 SE12 29.84S  
MARYSVILLE PTCLDY 57 52 83 SE12 29.84S  
SAC INTL ARPT MOCLDY 56 51 84 S15 29.82S  
MATHER AIRPORT CLOUDY 55 52 88 S8 29.85  
DOWNTOWN SAC N/A 57 MM MM MISG  
SAC EXEC ARPT LGT RAIN 56 52 86 S8G20 29.84S  
VACAVILLE CLEAR 57 54 89 SW10 29.82S  
TRAVIS AFB CLOUDY 55 50 83 W26G36 29.81F  

 
CAZ019>021-231100-  
SAN JOAQUIN VALLEY  
 
CITY SKY/WX TMP DP RH WIND PRES REMARKS
 
STOCKTON CLEAR 56 50 80 W10 29.85F  
MODESTO PTCLDY 57 50 77 NW9 29.85S  
MERCED CLEAR 57 51 80 NW6 29.84S  
LEMOORE CLEAR 61 50 67 N14 29.84R  
FRESNO CLEAR 61 51 70 NW10 29.83F  
HANFORD CLEAR 62 53 72 N7 29.83S  
PORTERVILLE CLEAR 60 47 61 S8 29.84  
BAKERSFIELD CLEAR 65 47 52 N5 29.84S  

 
CAZ011-012-071-231100-  
NORTHERN MOUNTAINS  
 
CITY SKY/WX TMP DP RH WIND PRES REMARKS
 
YREKA PTCLDY 55 49 80 CALM 29.85S  
MOUNT SHASTA MOCLDY 57 54 89 CALM 29.90S  
ALTURAS MOCLDY 51 49 92 CALM 29.92S  

 
CAZ011-012-071-231100-  
SIERRA NEVADA MTNS  
 
CITY SKY/WX TMP DP RH WIND PRES REMARKS
 
BLUE CANYON CLOUDY 53 52 96 CALM 29.99S  
TRUCKEE FOG 41 41 100 CALM 30.01R VSB<1/4  
TAHOE VLY ARPT MOCLDY 45 43 93 CALM 30.00S  
MAMMOTH LAKES CLOUDY 45 45 99 CALM 30.04S  

 
 
 
CLICK HERE TO GO TO PREVIOUS BULLETINS.

The Nexlab CA Page Main Text Page